Regional Weather Roundup
Issued by NWS

Home | Current Version | Previous Version | Graphics & Text | Print | Product List | Glossary On
Versions: 1 2 3 4 5 6 7 8 9 10 11 12 13 14 15 16 17 18 19 20 21 22 23 24 25 26 27 28 29 30 31 32 33 34 35 36 37 38 39 40 41 42 43 44 45 46 47 48 49 50
000
ASUS43 KOAX 261510
RWRNE

WEATHER ROUNDUP FOR NEBRASKA
NATIONAL WEATHER SERVICE OMAHA NE
1000 AM CDT SAT JUL 26 2014

NOTES: SATELLITE DATA IS BEING USED TO AUGMENT CLOUD COVER ABOVE
       12000 FEET.
       "FAIR" INDICATES FEW OR NO CLOUDS BELOW 12,000 FEET WITH NO
       SIGNIFICANT WEATHER AND/OR OBSTRUCTIONS TO VISIBILITY.

  * THESE STATIONS DO NOT REPORT WEATHER SUCH AS RAIN...SNOW OR FOG.

NEZ001>004-019>022-054>056-261600-
NEBRASKA PANHANDLE

CITY           SKY/WX    TMP DP  RH WIND       PRES   REMARKS
SCOTTSBLUFF    MOSUNNY   72  50  45 W10       30.09R
ALLIANCE       MOSUNNY   77  50  38 N14       30.06R
CHADRON        SUNNY     77  51  40 N15G22    30.06R
KIMBALL        MOSUNNY   72  44  36 N16G22    30.12R
SIDNEY         SUNNY     80  50  34 N18       30.08S
$$

NEZ057>060-069>072-079>082-261600-
SOUTHWEST NEBRASKA

CITY           SKY/WX    TMP DP  RH WIND       PRES   REMARKS
NORTH PLATTE   SUNNY     80  64  58 NW12      29.92R
IMPERIAL       SUNNY     80  56  43 NW10      29.99R
LEXINGTON      SUNNY     82  71  70 S7        29.90S
MCCOOK         SUNNY     84  64  50 W12       29.92R
OGALLALA       SUNNY     77  55  45 NW18G25   29.98R
$$

NEZ005>010-023>029-035>040-094-261600-
NORTH CENTRAL NEBRASKA

CITY           SKY/WX    TMP DP  RH WIND       PRES   REMARKS
VALENTINE      MOSUNNY   79  67  66 NW18G26   29.90R
AINSWORTH      SUNNY     79  65  62 W15       29.87S
BROKEN BOW     SUNNY     83  73  72 SE6       29.87S
O`NEILL        SUNNY     83  70  63 S15       29.83F
ORD            CLOUDY    78  74  87 S9        29.85S FOG
THEDFORD       SUNNY     81  62  52 NW17      29.92R
$$

NEZ041-046>049-061>064-073>077-083>087-261600-
SOUTH CENTRAL NEBRASKA

CITY           SKY/WX    TMP DP  RH WIND       PRES   REMARKS
GRAND ISLAND   CLOUDY    79  74  84 E3        29.86F HAZE
AURORA         PTSUNNY   80  80 100 E5        29.84F FOG
HASTINGS       CLOUDY    79  72  79 S8        29.88R HAZE
HEBRON         PTSUNNY   80  73  77 S3        29.84R HAZE
HOLDREGE       SUNNY     81  72  73 E3        29.90S
KEARNEY *      MOSUNNY   81  73  78 S5        29.89S
YORK           SUNNY     82  77  83 E8        29.83F HX  91
$$

NEZ011>018-030>034-042>045-261600-
NORTHEAST NEBRASKA

CITY           SKY/WX    TMP DP  RH WIND       PRES   REMARKS
NORFOLK        SUNNY     80  71  74 E12       29.83F
ALBION         MOSUNNY   79  72  78 SE9       29.86R
BLAIR          CLOUDY    76  71  85 NE8       29.85S
COLUMBUS *     MOSUNNY   81  72  74 E8        29.85S
FREMONT        MOSUNNY   81  74  80 E7        29.86R
WAYNE          MOSUNNY   80  74  80 SE10      29.83F
$$

NEZ050>053-065>068-078-088>093-261600-
SOUTHEAST NEBRASKA

CITY           SKY/WX    TMP DP  RH WIND       PRES   REMARKS
LINCOLN        MOSUNNY   82  73  74 E8        29.83F
OMAHA EPPLEY   CLOUDY    78  71  79 N9        29.85R
BEATRICE       CLOUDY    78  76  91 SE5       29.82F
FALLS CITY     CLOUDY    81  72  74 SW7       29.81R
NEBRASKA CITY  PTSUNNY   77  76  95 E3        29.83R
PLATTSMOUTH    PTSUNNY   79  73  81 NE5       29.83S
$$

NEZ044-045-051>053-067-261600-
OMAHA AREA

CITY           SKY/WX    TMP DP  RH WIND       PRES   REMARKS
OMAHA EPPLEY   CLOUDY    78  71  79 N9        29.85R
BLAIR          CLOUDY    76  71  85 NE8       29.85S
FREMONT        MOSUNNY   81  74  80 E7        29.86R
MILLARD        PTSUNNY   80  73  79 NE6       29.84R
OFFUTT AFB     PTSUNNY   78  77  98 VRB6      29.84R
PLATTSMOUTH    PTSUNNY   79  73  81 NE5       29.83S
WAHOO          PTSUNNY   81  75  81 NE8       29.85R
$$



USA.gov is the U.S. government's official web portal to all federal, state and local government web resources and services.